Weather History for Weslaco, TX

Change the Weather History Date:

Friday, May 31, 2013

  Actual Average (KMFE) Record (KMFE)
Temperature  
Mean Temperature 87 °F 85 °F  
Max Temperature 97 °F 95 °F 102 °F (2004)
Min Temperature 78 °F 75 °F 59 °F (1984)
Degree Days  
Heating Degree Days 0 0  
Month to date heating degree days 0  
Since 1 July heating degree days 579  
Cooling Degree Days 22 20  
Month to date cooling degree days 524  
Year to date cooling degree days 1255  
Growing Degree Days 37 (Base 50)    
Moisture  
Dew Point 71 °F    
Average Humidity 65    
Maximum Humidity 84    
Minimum Humidity 37    
Precipitation  
Precipitation 0.00 in 0.09 in 1.20 in (1987)
Month to date precipitation 2.25  
Year to date precipitation 6.78  
Sea Level Pressure  
Sea Level Pressure 29.81 in    
Wind  
Wind Speed 11 mph (SSE)    
Max Wind Speed 20 mph    
Max Gust Speed 25 mph    
Visibility 9 miles    
Events      
T = Trace of Precipitation, MM = Missing Value Source: NWS Daily Summary

Daily Weather History Graph

Daily Weather History Graph

Search for Another Location

Airport:

Trip Planner

Search our weather history database for the weather conditions in past years. The results will help you decide how hot, cold, wet, or windy it might be!

Date:

Astronomy

May. 31, 2013 Rise Set
Actual Time 6:39 AM CDT 8:19 PM CDT
Civil Twilight 6:14 AM CDT 8:45 PM CDT
Nautical Twilight 5:43 AM CDT 9:16 PM CDT
Astronomical Twilight 5:10 AM CDT 9:48 PM CDT
Moon 1:21 AM CDT (5/31) 1:26 PM CDT (5/31)
Length of Visible Light 14h 31m
Length of Day
13h 39m
Waning Gibbous, 51% of the Moon is Illuminated
May 31
Waning Gibbous
May 31
Last Quarter
Jun 8
New
Jun 16
First Quarter
Jun 23
Full

Hourly Weather History & Observations

Time (CDT) Temp. Heat Index Dew Point Humidity Pressure Visibility Wind Dir Wind Speed Gust Speed Precip Events Conditions
12:15 AM 79.2 °F - 73.6 °F 83% 29.83 in 10.0 mi SE 8.1 mph - N/A   Overcast
12:35 AM 79.2 °F - 73.8 °F 83% 29.83 in 10.0 mi SSE 9.2 mph - N/A   Overcast
12:55 AM 79.0 °F - 73.6 °F 83% 29.83 in 10.0 mi SE 10.4 mph - N/A   Overcast
1:15 AM 79.0 °F - 73.6 °F 83% 29.82 in 10.0 mi SE 9.2 mph 16.1 mph N/A   Overcast
1:35 AM 78.8 °F - 73.6 °F 84% 29.82 in 10.0 mi SE 10.4 mph - N/A   Overcast
1:55 AM 78.8 °F - 73.4 °F 83% 29.81 in 10.0 mi SE 10.4 mph - N/A   Overcast
2:15 AM 78.8 °F - 73.4 °F 83% 29.81 in 10.0 mi SE 10.4 mph - N/A   Overcast
2:35 AM 78.8 °F - 73.4 °F 83% 29.81 in 10.0 mi SSE 11.5 mph 16.1 mph N/A   Overcast
2:55 AM 78.8 °F - 73.6 °F 84% 29.81 in 10.0 mi SE 10.4 mph - N/A   Overcast
3:15 AM 78.8 °F - 73.8 °F 84% 29.80 in 10.0 mi SSE 11.5 mph - N/A   Overcast
3:35 AM 78.8 °F - 73.8 °F 84% 29.80 in 10.0 mi SSE 11.5 mph - N/A   Overcast
3:55 AM 79.0 °F - 73.6 °F 83% 29.80 in 10.0 mi SE 9.2 mph - N/A   Overcast
4:15 AM 78.8 °F - 73.4 °F 83% 29.80 in 10.0 mi SE 9.2 mph - N/A   Overcast
4:35 AM 79.2 °F - 73.6 °F 83% 29.81 in 10.0 mi SE 9.2 mph - N/A   Overcast
4:55 AM 79.2 °F - 73.8 °F 83% 29.81 in 10.0 mi SSE 6.9 mph - N/A   Overcast
5:15 AM 79.2 °F - 73.6 °F 83% 29.80 in 10.0 mi SSE 8.1 mph - N/A   Overcast
5:35 AM 79.2 °F - 73.4 °F 82% 29.80 in 10.0 mi SSE 9.2 mph - N/A   Overcast
5:55 AM 79.7 °F - 73.2 °F 80% 29.81 in 10.0 mi SSE 12.7 mph - N/A   Overcast
6:15 AM 79.2 °F - 73.0 °F 81% 29.82 in 10.0 mi SSE 9.2 mph - N/A   Mostly Cloudy
6:35 AM 79.2 °F - 73.4 °F 82% 29.82 in 10.0 mi SSE 10.4 mph - N/A   Mostly Cloudy
6:55 AM 79.2 °F - 73.4 °F 82% 29.82 in 10.0 mi SSE 9.2 mph 16.1 mph N/A   Overcast
7:15 AM 79.3 °F - 73.6 °F 82% 29.83 in 10.0 mi SSE 8.1 mph - N/A   Mostly Cloudy
7:35 AM 79.9 °F - 73.6 °F 81% 29.83 in 10.0 mi SSE 9.2 mph - N/A   Overcast
7:55 AM 80.6 °F 85.5 °F 73.8 °F 80% 29.84 in 7.0 mi SSE 10.4 mph - N/A   Overcast
8:15 AM 81.1 °F 86.6 °F 73.9 °F 79% 29.85 in 7.0 mi SSE 10.4 mph 17.3 mph N/A   Overcast
8:35 AM 81.9 °F 87.5 °F 73.6 °F 76% 29.85 in 7.0 mi SSE 15.0 mph 20.7 mph N/A   Overcast
8:55 AM 84.6 °F 91.4 °F 73.2 °F 69% 29.86 in 7.0 mi SSE 13.8 mph 21.9 mph N/A   Overcast
9:15 AM 83.5 °F 88.8 °F 71.8 °F 68% 29.86 in 7.0 mi South 12.7 mph 20.7 mph N/A   Mostly Cloudy
9:35 AM 85.5 °F 91.5 °F 72.0 °F 64% 29.86 in 7.0 mi South 15.0 mph 23.0 mph N/A   Clear
9:55 AM 88.7 °F 94.8 °F 71.4 °F 56% 29.85 in 7.0 mi SSE 16.1 mph 19.6 mph N/A   Mostly Cloudy
10:15 AM 87.3 °F 92.8 °F 70.9 °F 58% 29.85 in 10.0 mi South 15.0 mph 21.9 mph N/A   Mostly Cloudy
10:35 AM 88.2 °F 93.7 °F 70.9 °F 56% 29.86 in 7.0 mi South 17.3 mph - N/A   Scattered Clouds
10:55 AM 90.5 °F 96.0 °F 70.3 °F 51% 29.85 in 7.0 mi SSE 15.0 mph 18.4 mph N/A   Scattered Clouds
11:15 AM 90.1 °F 95.8 °F 70.5 °F 52% 29.85 in 7.0 mi SSE 11.5 mph 18.4 mph N/A   Scattered Clouds
11:35 AM 92.8 °F 98.6 °F 70.2 °F 47% 29.85 in 10.0 mi SSE 11.5 mph 19.6 mph N/A   Mostly Cloudy
11:55 AM 92.5 °F 97.9 °F 69.8 °F 47% 29.84 in 10.0 mi SSE 13.8 mph 20.7 mph N/A   Mostly Cloudy
12:15 PM 92.7 °F 98.8 °F 70.3 °F 48% 29.84 in 7.0 mi SE 10.4 mph - N/A   Overcast
12:35 PM 94.1 °F 99.5 °F 69.3 °F 44% 29.84 in 7.0 mi SSE 15.0 mph 20.7 mph N/A   Overcast
12:55 PM 94.5 °F 99.1 °F 68.0 °F 42% 29.83 in 10.0 mi SSE 17.3 mph 21.9 mph N/A   Mostly Cloudy
1:15 PM 95.0 °F 98.5 °F 66.2 °F 39% 29.83 in 10.0 mi SSE 19.6 mph 25.3 mph N/A   Scattered Clouds
1:35 PM 95.5 °F 100.0 °F 67.6 °F 40% 29.83 in 7.0 mi SE 15.0 mph 23.0 mph N/A   Scattered Clouds
1:55 PM 95.4 °F 100.2 °F 68.4 °F 41% 29.82 in 5.0 mi SSE 13.8 mph 21.9 mph N/A   Haze
2:15 PM 95.9 °F 100.7 °F 68.0 °F 40% 29.81 in 7.0 mi SSE 13.8 mph 23.0 mph N/A   Scattered Clouds
2:35 PM 95.9 °F 100.7 °F 68.0 °F 40% 29.80 in 7.0 mi SE 16.1 mph - N/A   Clear
2:55 PM 95.9 °F 100.7 °F 68.0 °F 40% 29.79 in 7.0 mi SE 16.1 mph 23.0 mph N/A   Clear
3:15 PM 95.9 °F 100.7 °F 68.4 °F 40% 29.78 in 7.0 mi SSE 13.8 mph 23.0 mph N/A   Clear
3:35 PM 96.3 °F 100.8 °F 67.8 °F 39% 29.78 in 7.0 mi SSE 13.8 mph 21.9 mph N/A   Clear
3:55 PM 95.9 °F 99.0 °F 65.8 °F 37% 29.78 in 10.0 mi South 13.8 mph 25.3 mph N/A   Clear
4:15 PM 96.4 °F 100.0 °F 66.4 °F 37% 29.77 in 10.0 mi SSE 16.1 mph 21.9 mph N/A   Clear
4:35 PM 95.9 °F 99.0 °F 65.5 °F 37% 29.76 in 7.0 mi SSE 13.8 mph 18.4 mph N/A   Clear
4:55 PM 95.5 °F 98.9 °F 66.6 °F 38% 29.76 in 7.0 mi SSE 16.1 mph 25.3 mph N/A   Clear
5:15 PM 95.0 °F 97.9 °F 65.8 °F 38% 29.75 in 10.0 mi SSE 13.8 mph 25.3 mph N/A   Clear
5:35 PM 94.5 °F 98.0 °F 66.7 °F 40% 29.75 in 10.0 mi SSE 16.1 mph 24.2 mph N/A   Clear
5:55 PM 93.7 °F 98.8 °F 68.9 °F 44% 29.75 in 10.0 mi SE 15.0 mph 21.9 mph N/A   Clear
6:15 PM 92.5 °F 97.4 °F 69.1 °F 46% 29.75 in 7.0 mi SE 16.1 mph 25.3 mph N/A   Clear
6:35 PM 91.2 °F 96.5 °F 69.4 °F 49% 29.75 in 10.0 mi SE 13.8 mph 21.9 mph N/A   Clear
6:55 PM 90.3 °F 95.7 °F 69.8 °F 51% 29.76 in 10.0 mi SE 17.3 mph 24.2 mph N/A   Clear
7:15 PM 88.7 °F 93.9 °F 70.2 °F 54% 29.76 in 10.0 mi SE 16.1 mph 23.0 mph N/A   Clear
7:35 PM 87.6 °F 93.5 °F 71.1 °F 58% 29.76 in 10.0 mi SE 13.8 mph 23.0 mph N/A   Clear
7:55 PM 86.2 °F 92.2 °F 71.6 °F 62% 29.77 in 10.0 mi SE 11.5 mph 21.9 mph N/A   Clear
8:15 PM 85.1 °F 90.8 °F 71.6 °F 64% 29.77 in 10.0 mi SE 12.7 mph 23.0 mph N/A   Clear
8:35 PM 84.0 °F 89.6 °F 72.0 °F 67% 29.78 in 10.0 mi SE 13.8 mph 18.4 mph N/A   Clear
8:55 PM 83.3 °F 89.0 °F 72.5 °F 70% 29.78 in 10.0 mi SE 11.5 mph 18.4 mph N/A   Clear
9:15 PM 82.4 °F 87.7 °F 72.7 °F 72% 29.79 in 10.0 mi SE 11.5 mph 19.6 mph N/A   Clear
9:35 PM 81.7 °F 86.9 °F 73.0 °F 75% 29.80 in 10.0 mi SE 15.0 mph 18.4 mph N/A   Clear
9:55 PM 81.0 °F 85.8 °F 73.0 °F 77% 29.80 in 10.0 mi SE 13.8 mph 18.4 mph N/A   Clear
10:15 PM 80.6 °F 85.2 °F 73.2 °F 78% 29.81 in 10.0 mi SE 12.7 mph 17.3 mph N/A   Scattered Clouds
10:35 PM 80.1 °F 84.4 °F 73.4 °F 80% 29.82 in 10.0 mi SE 12.7 mph - N/A   Clear
10:55 PM 79.9 °F - 73.4 °F 80% 29.82 in 10.0 mi SE 11.5 mph - N/A   Mostly Cloudy
11:15 PM 80.1 °F 84.5 °F 73.6 °F 81% 29.83 in 10.0 mi SE 10.4 mph 18.4 mph N/A   Overcast
11:35 PM 80.6 °F 85.4 °F 73.4 °F 79% 29.83 in 10.0 mi SSE 11.5 mph 19.6 mph N/A   Overcast
11:55 PM 80.6 °F 85.4 °F 73.4 °F 79% 29.83 in 10.0 mi SSE 13.8 mph 24.2 mph N/A   Overcast